O3B FM17

Last updated on Wed Jun 24 2026 00:03:25 GMT+0000 (Coordinated Universal Time)

1 44114U 19020C 26173.51634047 -.00000023 00000+0 00000+0 0 9999 2 44114 0.0341 8.5459 0002591 81.5593 269.9227 5.00115598131795
UTC large
Height (km)
Speed (km/s)
/
Latitude / Longitude
Inclination (degrees)
Orbital Period (minutes)
Azimuth
Elevation
Range (km)
Doppler Factor

Next 0 passes for location: London (51.5072 / 0.1276)

No passes found over London.
O3B FM17